Simultaneous Nadir Overpasses (SNOs) Predictions

Prediction of SNOs between GOES-14 and AQUA Satellite Orbit:

Table of predicted SNOs for the next 14.0 days since TLE Epoch: 10/8/2022
Index Date Time (GOES-14) GOES-14 Lat,Lon AQUA Lat,Lon Distance(km) Time Diff (sec)
1 10/09/2022 08:24:13 0.24,-104.37 -0.47,-101.19 361.90 80
2 10/09/2022 20:45:27 -0.21,-104.31 -0.66,-106.33 230.33 80
3 10/11/2022 20:35:19 -0.22,-104.31 0.02,-103.22 124.26 80
4 10/12/2022 08:56:25 0.19,-104.40 1.01,-108.35 447.98 80
5 10/13/2022 20:22:30 -0.23,-104.31 0.68,-100.10 479.26 80
6 10/14/2022 08:43:36 0.20,-104.40 0.34,-105.23 94.03 80
7 10/16/2022 08:28:06 0.20,-104.38 -0.30,-102.10 259.97 80
8 10/16/2022 20:49:20 -0.17,-104.27 -0.79,-107.25 338.01 80
9 10/18/2022 20:39:09 -0.17,-104.27 -0.15,-104.12 17.23 80
10 10/20/2022 20:26:18 -0.17,-104.27 0.52,-100.99 373.16 80
11 10/21/2022 08:47:24 0.15,-104.41 0.53,-106.11 193.91 80
